This is the latest recevied weather packets stored in our database for station/object LA5PPA-1. If no packets are shown the sender has not sent any weather packets the latest 1 day(s).
| Time | Temp. | Humidity | Pressure | Rain* | Wind** | Luminosity | Snow |
|---|---|---|---|---|---|---|---|
| 1778050614 | -2.78° C | 66% | 1017.2 hPa | 0 mm | 0 m/s | - | - |
| 1778050495 | -2.78° C | 67% | 1017.2 hPa | 0 mm | 0.89 m/s, 293° | - | - |
| 1778050314 | -2.78° C | 67% | 1017.2 hPa | 0 mm | 0 m/s | - | - |
| 1778050014 | -3.33° C | 68% | 1017.2 hPa | 0 mm | 0 m/s | - | - |
| 1778049835 | -3.33° C | 69% | 1017.2 hPa | 0 mm | 0 m/s | - | - |
| 1778049714 | -3.33° C | 68% | 1017.2 hPa | 0 mm | 0 m/s | - | - |
| 1778049414 | -3.33° C | 67% | 1017.2 hPa | 0 mm | 1.34 m/s, 322° | - | - |
| 1778049175 | -3.33° C | 68% | 1017.3 hPa | 0 mm | 2.24 m/s, 320° | - | - |
| 1778049114 | -3.89° C | 69% | 1017.2 hPa | 0 mm | 0.45 m/s, 305° | - | - |
| 1778048814 | -3.89° C | 70% | 1017.2 hPa | 0 mm | 1.79 m/s, 288° | - | - |
| 1778048514 | -3.89° C | 71% | 1017.2 hPa | 0 mm | 2.68 m/s, 305° | - | - |
| 1778048214 | -3.89° C | 71% | 1017.2 hPa | 0 mm | 0.89 m/s, 298° | - | - |
| 1778047914 | -3.89° C | 72% | 1017.2 hPa | 0 mm | 2.24 m/s, 316° | - | - |
| 1778047855 | -3.89° C | 72% | 1017.2 hPa | 0 mm | 1.34 m/s, 309° | - | - |
| 1778047614 | -4.44° C | 73% | 1017.2 hPa | 0 mm | 0 m/s | - | - |
| 1778047314 | -4.44° C | 73% | 1017.2 hPa | 0 mm | 0 m/s | - | - |
| 1778047195 | -4.44° C | 73% | 1017.2 hPa | 0 mm | 0 m/s | - | - |
| 1778047014 | -4.44° C | 74% | 1017.2 hPa | 0 mm | 1.34 m/s, 315° | - | - |
| 1778046714 | -4.44° C | 75% | 1017.2 hPa | 0 mm | 1.34 m/s, 324° | - | - |
| 1778046535 | -4.44° C | 75% | 1017.2 hPa | 0 mm | 0 m/s | - | - |
| 1778046414 | -5° C | 75% | 1017.2 hPa | 0 mm | 0.45 m/s, 344° | - | - |
| 1778046114 | -5° C | 76% | 1017.3 hPa | 0 mm | 0.89 m/s, 306° | - | - |
| 1778045875 | -5° C | 78% | 1017.3 hPa | 0 mm | 0.89 m/s, 293° | - | - |
| 1778045814 | -5° C | 78% | 1017.2 hPa | 0 mm | 0.89 m/s, 306° | - | - |
| 1778045522 | -5° C | 78% | 1017.2 hPa | 0 mm | 1.79 m/s, 322° | - | - |
* Rain latest hour (hover to see other rain measurements)
** Current wind speed in m/s (hover to see current wind gust speed)